TimePST,TemperatureF,Dew PointF,Humidity,Sea Level PressureIn,VisibilityMPH,Wind Direction,Wind SpeedMPH,Gust SpeedMPH,PrecipitationIn,Events,Conditions,WindDirDegrees,DateUTC
12:58 AM,11.5,5.4,76,29.79,10.0,NNE,11.5,-,N/A,,Partly Cloudy,20,2014-02-08 08:58:00
1:32 AM,12.2,5.0,73,29.80,10.0,NNE,9.2,-,N/A,Snow,Light Snow,30,2014-02-08 09:32:00
1:40 AM,12.2,5.0,73,29.81,10.0,NNE,8.1,-,N/A,,Overcast,30,2014-02-08 09:40:00
1:58 AM,11.5,5.4,76,29.95,10.0,North,10.4,-,0.00,,Overcast,10,2014-02-08 09:58:00
2:58 AM,11.7,5.0,75,29.83,10.0,NNE,9.2,-,N/A,,Mostly Cloudy,20,2014-02-08 10:58:00
3:58 AM,11.3,4.3,73,29.87,10.0,North,11.5,-,N/A,,Overcast,10,2014-02-08 11:58:00
4:58 AM,11.5,4.3,73,30.05,10.0,North,9.2,-,N/A,,Overcast,10,2014-02-08 12:58:00
5:58 AM,11.1,3.7,72,30.09,10.0,North,6.9,-,N/A,,Overcast,10,2014-02-08 13:58:00
6:58 AM,11.5,3.9,72,30.11,10.0,NNE,9.2,-,N/A,,Overcast,20,2014-02-08 14:58:00
7:58 AM,11.5,3.6,71,30.16,10.0,NNE,6.9,-,N/A,,Overcast,30,2014-02-08 15:58:00
8:58 AM,11.5,3.6,71,30.18,10.0,North,9.2,-,N/A,,Overcast,10,2014-02-08 16:58:00
9:58 AM,12.4,3.4,67,30.20,10.0,NNE,8.1,-,N/A,,Overcast,20,2014-02-08 17:58:00
10:58 AM,15.6,5.7,65,30.22,10.0,ENE,4.6,-,N/A,,Clear,60,2014-02-08 18:58:00
11:58 AM,18.0,7.0,62,30.21,10.0,NNE,9.2,-,N/A,,Clear,30,2014-02-08 19:58:00
12:58 PM,19.8,7.2,58,30.19,10.0,NNE,8.1,-,N/A,,Partly Cloudy,30,2014-02-08 20:58:00
1:10 PM,19.4,6.8,58,30.05,10.0,NE,8.1,-,N/A,Snow,Light Snow,40,2014-02-08 21:10:00
1:28 PM,21.2,8.6,58,30.05,10.0,NNE,8.1,-,N/A,,Scattered Clouds,30,2014-02-08 21:28:00
1:58 PM,21.0,7.5,56,30.17,10.0,NNE,8.1,-,0.00,,Partly Cloudy,30,2014-02-08 21:58:00
2:58 PM,21.4,7.5,55,30.15,10.0,NE,9.2,-,N/A,,Clear,40,2014-02-08 22:58:00
3:58 PM,21.6,8.1,56,30.13,10.0,NE,10.4,-,N/A,,Partly Cloudy,40,2014-02-08 23:58:00
4:58 PM,21.0,8.1,57,30.09,10.0,NE,11.5,-,N/A,,Clear,40,2014-02-09 00:58:00
5:58 PM,19.2,9.9,67,30.10,10.0,NE,8.1,-,N/A,,Scattered Clouds,50,2014-02-09 01:58:00
6:58 PM,20.1,8.2,60,30.08,10.0,NNE,12.7,-,N/A,,Clear,30,2014-02-09 02:58:00
7:58 PM,20.1,8.2,60,30.05,10.0,NNE,15.0,-,N/A,,Mostly Cloudy,30,2014-02-09 03:58:00
8:58 PM,19.9,7.9,60,30.02,10.0,NNE,13.8,-,N/A,,Clear,20,2014-02-09 04:58:00
9:58 PM,20.1,7.7,59,30.00,10.0,NNE,17.3,-,N/A,,Clear,30,2014-02-09 05:58:00
10:58 PM,20.3,8.2,60,29.99,10.0,NNE,10.4,-,0.00,,Partly Cloudy,30,2014-02-09 06:58:00
11:26 PM,19.4,8.6,63,29.87,10.0,NNE,13.8,-,N/A,Snow,Light Snow,20,2014-02-09 07:26:00
11:36 PM,19.4,8.6,63,29.87,10.0,NNE,16.1,-,N/A,Snow,Light Snow,20,2014-02-09 07:36:00
11:41 PM,21.2,6.8,54,29.87,10.0,NNE,13.8,-,N/A,Snow,Light Snow,20,2014-02-09 07:41:00
11:46 PM,19.4,8.6,63,29.87,10.0,NNE,15.0,-,N/A,,Scattered Clouds,20,2014-02-09 07:46:00
11:58 PM,20.3,7.9,59,29.99,10.0,NNE,15.0,-,0.00,,Scattered Clouds,20,2014-02-09 07:58:00
11:59 PM,19.4,8.6,63,29.86,10.0,NNE,15.0,-,N/A,Snow,Light Snow,20,2014-02-09 07:59:00